This is the latest recevied weather packets stored in our database for station/object W7OWO-1. If no packets are shown the sender has not sent any weather packets the latest 10 day(s).
| Time | Temp. | Humidity | Pressure | Rain* | Wind** | Luminosity | Snow |
|---|---|---|---|---|---|---|---|
| 1776941643 | 8.89° C | 97% | 1023.4 hPa | 0 mm | - | - | - |
| 1776940023 | 8.89° C | 96% | 1023.3 hPa | 0 mm | - | - | - |
| 1776939484 | 8.89° C | 96% | 1023.2 hPa | 0 mm | - | - | - |
| 1776936963 | 8.89° C | 95% | 1023.3 hPa | 0 mm | - | - | - |
| 1776933903 | 8.89° C | 94% | 1023.4 hPa | 0 mm | - | - | - |
| 1776933363 | 8.89° C | 94% | 1023.4 hPa | 0 mm | - | - | - |
| 1776929763 | 9.44° C | 93% | 1023.4 hPa | 0 mm | - | - | - |
| 1776928143 | 9.44° C | 93% | 1023.2 hPa | 0 mm | - | - | - |
| 1776926163 | 9.44° C | 91% | 1023.1 hPa | 0 mm | - | - | - |
| 1776924003 | 9.44° C | 92% | 1023 hPa | 0 mm | - | - | - |
| 1776923643 | 9.44° C | 92% | 1023.1 hPa | 0 mm | - | - | - |
| 1776923103 | 9.44° C | 92% | 1023 hPa | 0 mm | - | - | - |
| 1776922023 | 10° C | 90% | 1022.8 hPa | 0 mm | - | - | - |
| 1776918963 | 10.56° C | 83% | 1022.3 hPa | 0 mm | - | - | - |
| 1776918423 | 10.56° C | 85% | 1022.2 hPa | 0 mm | - | - | - |
| 1776917883 | 10.56° C | 85% | 1022.1 hPa | 0 mm | - | - | - |
| 1776916443 | 10° C | 87% | 1021.6 hPa | 0 mm | - | - | - |
| 1776914823 | 10.56° C | 88% | 1021.2 hPa | 0 mm | - | - | - |
| 1776914283 | 10.56° C | 84% | 1021.1 hPa | 0 mm | - | - | - |
| 1776913743 | 10.56° C | 83% | 1020.8 hPa | 0 mm | - | - | - |
| 1776913203 | 11.11° C | 82% | 1020.8 hPa | 0 mm | - | - | - |
| 1776909604 | 12.22° C | 77% | 1020.5 hPa | 0 mm | - | - | - |
| 1776909243 | 12.22° C | 77% | 1020.5 hPa | 0 mm | - | - | - |
* Rain latest hour (hover to see other rain measurements)
** Current wind speed in m/s (hover to see current wind gust speed)